Regional Weather Roundup
Issued by NWS New Orleans/Baton Rouge, LA

Home | Current Version | Previous Version | Text Only | Print | Product List | Glossary On
Versions: 1 2 3 4 5 6 7 8 9 10 11 12 13 14 15 16 17 18 19 20 21 22 23 24 25 26 27 28 29 30 31 32 33 34 35 36 37 38 39 40 41 42 43 44 45 46 47 48 49 50
000
ASUS44 KLIX 040811
RWRLIX
NEW ORLEANS REGIONAL WEATHER ROUNDUP
NATIONAL WEATHER SERVICE NEW ORLEANS LA
300 AM CDT WED MAY 04 2016

NOTE: "FAIR" INDICATES FEW OR NO CLOUDS BELOW 12,000 FEET WITH NO
      SIGNIFICANT WEATHER AND/OR OBSTRUCTIONS TO VISIBILITY.
      SKY/WX - SKY CONDITION AND SIGNIFICANT WEATHER.
      TMP - AIR TEMPERATURE.     DP    - DEWPOINT TEMPERATURE.
      RH  - RELATIVE HUMIDITY.   PRES  - PRESSURE.
      HI  - HEAT INDEX.          WCI   - WIND CHILL INDEX.

*  THESE STATIONS ARE NOT NWS OR FAA STATIONS AND ARE NOT UNDER
   NWS QUALITY CONTROL.

LAZ038-040-048-061>063-065>067-069-040900-
SOUTHEAST LOUISIANA

CITY           SKY/WX    TMP DP  RH WIND       PRES   REMARKS
N.O. AUDUBON     N/A     67  58  73 MISG        N/A
N.O. INTL ARPT MOCLDY    67  56  67 N15       29.95R
N.O. LAKEFRONT CLOUDY    62  56  80 N22       29.95R
N.O. DOWNTOWN*   N/A     66  56  70 N8        29.95S
RESERVE*         N/A     63  58  83 N5        29.96S
SLIDELL        CLOUDY    61  56  83 N7        29.94S
BATON ROUGE    PTCLDY    59  51  75 N3        29.97S
BOOTHVILLE     MOCLDY    70  61  73 N9        29.90F
BELLE CHASSE   CLEAR     64  56  75 N6        29.94S
BOGALUSA*      CLOUDY    59  53  79 N5        29.97S
GALLIANO*      SUNNY     66  62  87 N9        29.92F
NEW ROADS*       N/A     59  54  82 N9        29.99S
GONZALES*        N/A     61  54  77 N6        29.96S
HAMMOND*       CLEAR     57  52  82 N3        29.96S
HOUMA*           N/A     62  59  91 N7        29.94F
PORT FOURCHON* MOSUNNY   70  61  73 N13       29.92F

$$

MSZ070-080>082-040900-
SOUTHERN MISSISSIPPI

CITY           SKY/WX    TMP DP  RH WIND       PRES   REMARKS
MCCOMB         CLEAR     55  52  89 N5        29.97F
GULFPORT       CLEAR     61  54  77 N7        29.92S
BILOXI         PTCLDY    62  56  79 N13G20    29.92R
PASCAGOULA     CLEAR     61  55  81 N13       29.91S

$$

COASTAL OBSERVATIONS
LAKE AND NEARSHORE STATIONS

STATION/POSITION TIME  TEMP    WIND        PRES    WAVE
                       AIR SEA DIR/SP/G            HT/PER
                 (UTC) (F)     (DEG/KT/KT) (MB)    (FT/S)
PASCAGOULA       0700   65     350/  9/ 15 1012.1
WAVELAND YACHT   0700   64 72   10/ 14/ 17 1013.2
GRAND ISLE       0700   71 76   20/ 15/ 20 1012.6
SOUTHWEST PASS   0700          350/ 16/ 19   N/A
NEW CANAL        0700   68 74   20/ 15/ 19 1013.0
SHELL BEACH      0700   69 75   10/ 19/ 22 1013.3

OFFSHORE STATIONS

STATION/POSITION TIME  TEMP    WIND        PRES    WAVE
                       AIR SEA DIR/SP/G            HT/PER
                 (UTC) (F)     (DEG/KT/KT) (MB)    (FT/S)
64 S DAUPHIN ISL 0700   74 77  360/ 14/ 16 1011.5

$$




USA.gov is the U.S. government's official web portal to all federal, state and local government web resources and services.